Woolwich, ME

8:03 AM EST on February 19, 2017 (GMT -0500)
Wiscasset

Weather History for KIWI - November, 2013

Change the Weather History Date:

Monday, November 18, 2013

  Actual Average Record
Temperature  
Mean Temperature 52 °F -  
Max Temperature 62 °F 43 °F 62 °F (2013)
Min Temperature 41 °F 27 °F 14 °F (1997)
Degree Days  
Heating Degree Days 14    
Growing Degree Days 2 (Base 50)    
Moisture  
Dew Point 50 °F    
Average Humidity 87    
Maximum Humidity 100    
Minimum Humidity 48    
Precipitation  
Precipitation 0.26 in - - ()
Sea Level Pressure  
Sea Level Pressure 29.61 in    
Wind  
Wind Speed 8 mph (SSW)    
Max Wind Speed 18 mph    
Max Gust Speed 32 mph    
Visibility 5 miles    
Events Fog , Rain    
Averages and records for this station are not official NWS values.
T = Trace of Precipitation, MM = Missing Value Source: NWS Daily Summary

Daily Weather History Graph

Daily Weather History Graph

Search for Another Location

Airport or City:

Trip Planner

Search our weather history database for the weather conditions in past years. The results will help you decide how hot, cold, wet, or windy it might be!

Date:

Astronomy

Nov. 18, 2013 Rise Set
Actual Time 6:37 AM EST 4:09 PM EST
Civil Twilight 6:06 AM EST 4:41 PM EST
Nautical Twilight 5:31 AM EST 5:16 PM EST
Astronomical Twilight 4:57 AM EST 5:50 PM EST
Moon 5:09 PM EST (11/18) 7:24 AM EST (11/18)
Length of Visible Light 10h 34m
Length of Day
9h 31m
Full, 99% of the Moon is Illuminated
Nov 18
Full
Nov 25
Last Quarter
Dec 2
New
Dec 9
First Quarter
Dec 17
Full

Hourly Weather History & Observations

Time (EST) Temp. Dew Point Humidity Pressure Visibility Wind Dir Wind Speed Gust Speed Precip Events Conditions
12:53 AM 54.0 °F 53.1 °F 97% 29.89 in 2.0 mi SSE 8.1 mph - N/A   Overcast
1:53 AM 54.0 °F 53.1 °F 97% 29.84 in 1.8 mi SSE 6.9 mph - 0.02 in   Overcast
2:01 AM 54.0 °F 53.1 °F 97% 29.83 in 2.5 mi SSE 5.8 mph - N/A   Overcast
2:45 AM 54.0 °F 53.1 °F 97% 29.80 in 1.8 mi South 6.9 mph - N/A   Overcast
2:53 AM 54.0 °F 53.1 °F 97% 29.79 in 1.8 mi South 6.9 mph - N/A   Overcast
3:07 AM 54.0 °F 53.1 °F 97% 29.78 in 1.2 mi South 6.9 mph - N/A   Overcast
3:35 AM 54.0 °F 53.1 °F 97% 29.74 in 2.0 mi SSE 6.9 mph - 0.00 in Rain Light Rain
3:50 AM 53.6 °F 53.6 °F 100% 29.73 in 1.5 mi Variable 3.5 mph - 0.00 in   Overcast
3:53 AM 54.0 °F 54.0 °F 100% 29.73 in 1.2 mi Variable 3.5 mph - 0.01 in   Overcast
4:07 AM 54.0 °F 53.1 °F 97% 29.71 in 2.0 mi South 4.6 mph - 0.00 in Rain Light Rain
4:18 AM 54.0 °F 53.1 °F 97% 29.70 in 1.5 mi Variable 5.8 mph - 0.01 in   Overcast
4:53 AM 54.0 °F 53.1 °F 97% 29.69 in 1.2 mi South 10.4 mph 20.7 mph 0.01 in   Overcast
5:06 AM 54.0 °F 53.1 °F 97% 29.67 in 0.8 mi South 10.4 mph 17.3 mph N/A   Mist
5:53 AM 54.0 °F 54.0 °F 100% 29.62 in 0.5 mi South 10.4 mph 19.6 mph N/A Fog Fog
6:53 AM 54.0 °F 54.0 °F 100% 29.57 in 0.2 mi South 12.7 mph 18.4 mph 0.01 in Fog Fog
7:19 AM 55.0 °F 54.0 °F 96% 29.54 in 1.5 mi South 15.0 mph 21.9 mph 0.04 in Rain Rain
7:29 AM 55.0 °F 54.0 °F 96% 29.52 in 2.5 mi South 11.5 mph 24.2 mph 0.06 in Rain Rain
7:47 AM 55.4 °F 55.4 °F 100% 29.51 in 1.2 mi South 11.5 mph 25.3 mph 0.16 in Rain Heavy Rain
7:48 AM 55.9 °F 55.0 °F 97% 29.51 in 1.0 mi South 11.5 mph 25.3 mph 0.16 in Rain Heavy Rain
7:56 AM 55.0 °F 54.0 °F 96% 29.51 in 2.0 mi South 13.8 mph 27.6 mph 0.01 in Rain Light Rain
8:03 AM 55.9 °F 55.0 °F 97% 29.51 in 10.0 mi South 13.8 mph 27.6 mph 0.01 in Rain Light Rain
8:42 AM 59.0 °F 57.9 °F 96% 29.50 in 4.0 mi SSW 18.4 mph 32.2 mph 0.03 in Rain Light Rain
8:53 AM 59.0 °F 57.0 °F 93% 29.51 in 2.5 mi SSW 12.7 mph 32.2 mph 0.04 in Rain Light Rain
9:03 AM 59.0 °F 57.0 °F 93% 29.51 in 7.0 mi SW 13.8 mph 25.3 mph 0.01 in Rain Light Rain
9:53 AM 59.0 °F 55.9 °F 90% 29.50 in 10.0 mi SSW 12.7 mph 25.3 mph 0.01 in   Overcast
10:19 AM 57.9 °F 55.9 °F 93% 29.50 in 9.0 mi SSW 9.2 mph - 0.00 in Rain Light Rain
10:53 AM 57.9 °F 53.1 °F 84% 29.50 in 10.0 mi SW 5.8 mph - 0.00 in   Overcast
11:53 AM 61.0 °F 50.0 °F 67% 29.49 in 10.0 mi SW 10.4 mph 18.4 mph N/A   Clear
12:53 PM 62.1 °F 46.0 °F 56% 29.50 in 10.0 mi Variable 6.9 mph - N/A   Clear
1:53 PM 62.1 °F 42.1 °F 48% 29.50 in 10.0 mi West 9.2 mph - N/A   Clear
2:53 PM 61.0 °F 41.0 °F 48% 29.52 in 10.0 mi SW 9.2 mph - N/A   Clear
3:53 PM 57.9 °F 39.9 °F 51% 29.53 in 10.0 mi SW 5.8 mph - N/A   Clear
4:53 PM 48.0 °F 43.0 °F 83% 29.55 in 10.0 mi Calm Calm - N/A   Clear
5:53 PM 45.0 °F 42.1 °F 90% 29.56 in 10.0 mi Calm Calm - N/A   Partly Cloudy
6:53 PM 43.0 °F 41.0 °F 93% 29.57 in 10.0 mi Calm Calm - N/A   Partly Cloudy
7:53 PM 41.0 °F 39.0 °F 93% 29.55 in 10.0 mi Calm Calm - N/A   Clear
8:53 PM 43.0 °F 41.0 °F 93% 29.56 in 10.0 mi Calm Calm - N/A   Overcast
9:53 PM 50.0 °F 37.0 °F 61% 29.56 in 10.0 mi West 3.5 mph - N/A   Overcast
10:53 PM 48.9 °F 36.0 °F 61% 29.57 in 10.0 mi WSW 3.5 mph - N/A   Overcast
11:53 PM 48.9 °F 33.1 °F 54% 29.57 in 10.0 mi WSW 4.6 mph - N/A   Partly Cloudy